Location: Newark
(13.2833°S, 176.1833°W)
Time: 22:07:00
(UTC+00:00)

Hubble Space Telescope - Pass Details

Date: 20 November 2019
Orbit: 536 x 540 km, 28.5° (Epoch: 11 December)

Event Time Altitude Azimuth Distance (km) Brightness Sun altitude
Exits shadow 15:23:39 76° 141° (SE) 555 0.8 -23.8°
Drops below altitude 10° 15:27:31 10° 118° (ESE) 1,790 4.6 -23.0°
Sets 15:29:47 0° 117° (ESE) 2,683 5.8 -22.5°
